Location: Lahitte
(43.6596°N, 0.6805°E)
Time: 15:02:53
(UTC+00:00)

Okean O Rocket - Pass Details

Date: 15 May 2026
Orbit: 614 x 633 km, 98.0° (Epoch: 10 June)

Event Time Altitude Azimuth Distance (km) Brightness Sun altitude
Exits shadow 21:29:49 17° 209° (SSW) 1,565 3.4 -19.2°
Maximum altitude 21:32:29 32° 263° (W) 1,057 3.0 -19.5°
Drops below altitude 10° 21:36:22 10° 328° (NNW) 1,982 5.4 -19.9°
Sets 21:38:45 0° 338° (NNW) 2,894 6.5 -20.1°
